Weather History for KOZW - February, 2013

Change the Weather History Date:

Monday, February 4, 2013

  Actual Average Record
Temperature  
Mean Temperature 18 °F -  
Max Temperature 22 °F 33 °F 44 °F (2005)
Min Temperature 15 °F 19 °F -5 °F (2007)
Degree Days  
Heating Degree Days 46    
Moisture  
Dew Point 13 °F    
Average Humidity 79    
Maximum Humidity 82    
Minimum Humidity 69    
Precipitation  
Precipitation 0.00 in - - ()
Sea Level Pressure  
Sea Level Pressure 29.91 in    
Wind  
Wind Speed 3 mph (ESE)    
Max Wind Speed 7 mph    
Max Gust Speed -    
Visibility 5 miles    
Events Snow    
Averages and records for this station are not official NWS values.
T = Trace of Precipitation, MM = Missing Value Source: NWS Daily Summary

Daily Weather History Graph

Daily Weather History Graph

Search for Another Location

Airport or City:

Trip Planner

Search our weather history database for the weather conditions in past years. The results will help you decide how hot, cold, wet, or windy it might be!

Date:

Astronomy

Feb. 04, 2013 Rise Set
Actual Time 7:46 AM EST 5:53 PM EST
Civil Twilight 7:16 AM EST 6:23 PM EST
Nautical Twilight 6:43 AM EST 6:57 PM EST
Astronomical Twilight 6:10 AM EST 7:30 PM EST
Moon 2:22 AM EST (2/4) 12:14 PM EST (2/4)
Length of Visible Light 11h 06m
Length of Day
10h 07m
Last Quarter, 37% of the Moon is Illuminated
Feb 4
Last Quarter
Feb 10
New
Feb 17
First Quarter
Feb 25
Full
Mar 4
Last Quarter

Hourly Weather History & Observations

Time (EST) Temp. Windchill Dew Point Humidity Pressure Visibility Wind Dir Wind Speed Gust Speed Precip Events Conditions
12:14 AM 16.3 °F - 7.7 °F 69% 29.96 in 10.0 mi Calm Calm - N/A   Overcast
12:34 AM 15.8 °F 7.2 °F 8.4 °F 73% 29.97 in 10.0 mi WSW 5.8 mph - N/A   Overcast
12:55 AM 16.3 °F 7.8 °F 9.5 °F 74% 29.97 in 7.0 mi WSW 5.8 mph - N/A   Overcast
1:14 AM 16.3 °F 6.7 °F 10.2 °F 77% 29.98 in 10.0 mi WSW 6.9 mph - N/A   Overcast
1:34 AM 16.3 °F 7.8 °F 10.4 °F 77% 29.97 in 10.0 mi SW 5.8 mph - N/A   Overcast
1:55 AM 16.3 °F 9.2 °F 10.8 °F 79% 29.97 in 10.0 mi SW 4.6 mph - N/A   Overcast
2:14 AM 16.3 °F 10.8 °F 10.9 °F 79% 29.98 in 10.0 mi WSW 3.5 mph - N/A   Overcast
2:35 AM 16.3 °F 10.8 °F 10.9 °F 79% 29.98 in 10.0 mi WSW 3.5 mph - N/A   Overcast
2:54 AM 16.5 °F 9.4 °F 11.1 °F 79% 29.98 in 10.0 mi SW 4.6 mph - N/A   Overcast
3:14 AM 16.5 °F 11.0 °F 11.1 °F 79% 29.98 in 10.0 mi SW 3.5 mph - N/A   Overcast
3:35 AM 16.5 °F 11.0 °F 10.9 °F 79% 29.98 in 10.0 mi SW 3.5 mph - N/A   Overcast
3:54 AM 16.7 °F 8.3 °F 10.9 °F 78% 29.97 in 10.0 mi SW 5.8 mph - N/A   Overcast
4:14 AM 16.7 °F 9.6 °F 10.8 °F 77% 29.96 in 10.0 mi SW 4.6 mph - N/A   Overcast
5:54 AM 16.2 °F - 10.9 °F 80% 29.95 in 5.0 mi Calm Calm - N/A Snow Light Snow
6:15 AM 15.8 °F 10.2 °F 10.9 °F 81% 29.94 in 5.0 mi South 3.5 mph - N/A Snow Light Snow
6:34 AM 16.3 °F 10.8 °F 11.3 °F 81% 29.94 in 7.0 mi SSE 3.5 mph - N/A Snow Light Snow
6:54 AM 16.5 °F 11.0 °F 11.5 °F 81% 29.94 in 7.0 mi South 3.5 mph - N/A Snow Light Snow
7:15 AM 16.3 °F 10.8 °F 11.3 °F 81% 29.93 in 4.0 mi SSE 3.5 mph - N/A Snow Light Snow
7:34 AM 16.5 °F 11.0 °F 11.8 °F 82% 29.93 in 4.0 mi SE 3.5 mph - N/A Snow Light Snow
7:54 AM 16.5 °F 9.4 °F 12.0 °F 82% 29.93 in 4.0 mi SSE 4.6 mph - N/A Snow Light Snow
8:14 AM 16.7 °F - 12.2 °F 82% 29.94 in 1.8 mi Calm Calm - N/A Snow Light Snow
8:34 AM 16.7 °F 11.2 °F 12.0 °F 82% 29.95 in 1.2 mi SSE 3.5 mph - N/A Snow Light Snow
8:55 AM 16.7 °F - 12.2 °F 82% 29.95 in 0.8 mi Calm Calm - N/A Snow Light Snow
9:14 AM 16.7 °F 9.6 °F 12.0 °F 82% 29.95 in 1.0 mi SSE 4.6 mph - N/A Snow Light Snow
9:34 AM 17.2 °F 11.9 °F 12.6 °F 82% 29.95 in 1.5 mi East 3.5 mph - N/A Snow Light Snow
9:55 AM 17.4 °F 12.1 °F 12.6 °F 81% 29.94 in 1.0 mi ESE 3.5 mph - N/A Snow Light Snow
10:14 AM 17.6 °F 10.7 °F 12.9 °F 82% 29.94 in 0.5 mi East 4.6 mph - N/A Snow Light Snow
10:35 AM 18.0 °F 12.7 °F 12.9 °F 81% 29.94 in 1.2 mi East 3.5 mph - N/A Snow Light Snow
10:54 AM 18.3 °F 13.1 °F 13.3 °F 81% 29.94 in 0.8 mi East 3.5 mph - N/A Snow Light Snow
11:14 AM 18.5 °F 11.7 °F 13.3 °F 80% 29.94 in 1.0 mi East 4.6 mph - N/A Snow Light Snow
11:35 AM 19.2 °F 12.5 °F 13.8 °F 80% 29.93 in 0.5 mi ESE 4.6 mph - N/A Snow Light Snow
11:54 AM 19.4 °F 12.8 °F 13.8 °F 79% 29.92 in 1.5 mi SE 4.6 mph - N/A Snow Light Snow
12:15 PM 19.6 °F 14.5 °F 13.8 °F 78% 29.91 in 1.5 mi SE 3.5 mph - N/A Snow Light Snow
12:34 PM 20.1 °F 13.6 °F 14.0 °F 77% 29.90 in 1.8 mi ESE 4.6 mph - N/A Snow Light Snow
12:54 PM 20.3 °F 15.4 °F 14.2 °F 77% 29.89 in 2.0 mi ESE 3.5 mph - N/A Snow Light Snow
1:15 PM 20.7 °F - 14.4 °F 77% 29.88 in 1.2 mi Calm Calm - N/A Snow Light Snow
1:34 PM 21.2 °F - 14.9 °F 77% 29.88 in 2.0 mi Calm Calm - N/A Snow Light Snow
1:54 PM 21.2 °F - 14.9 °F 77% 29.88 in 1.5 mi Calm Calm - N/A Snow Light Snow
2:15 PM 21.2 °F 16.4 °F 14.9 °F 77% 29.87 in 1.5 mi NE 3.5 mph - N/A Snow Light Snow
2:34 PM 21.7 °F 17.0 °F 14.9 °F 75% 29.86 in 1.8 mi ENE 3.5 mph - N/A Snow Light Snow
2:54 PM 22.1 °F - 15.6 °F 76% 29.86 in 1.8 mi Calm Calm - N/A Snow Light Snow
3:34 PM 22.5 °F - 15.8 °F 76% 29.85 in 2.0 mi Calm Calm - N/A Snow Light Snow
3:54 PM 22.5 °F - 15.8 °F 76% 29.85 in 2.5 mi Calm Calm - N/A Snow Light Snow
4:15 PM 22.5 °F - 15.8 °F 76% 29.86 in 3.0 mi Calm Calm - N/A Snow Light Snow
4:34 PM 22.5 °F - 15.8 °F 76% 29.85 in 3.0 mi Calm Calm - N/A Snow Light Snow
4:55 PM 22.5 °F - 15.8 °F 76% 29.85 in 4.0 mi Calm Calm - N/A Snow Light Snow
5:14 PM 22.1 °F - 15.8 °F 77% 29.84 in 3.0 mi Calm Calm - N/A Snow Light Snow
5:34 PM 22.1 °F - 15.8 °F 77% 29.84 in 3.0 mi Calm Calm - N/A Snow Light Snow
5:55 PM 22.1 °F - 15.8 °F 77% 29.84 in 4.0 mi Calm Calm - N/A Snow Light Snow
6:14 PM 21.7 °F 17.0 °F 15.8 °F 78% 29.84 in 7.0 mi NNE 3.5 mph - N/A Snow Light Snow
6:35 PM 21.2 °F 16.4 °F 15.6 °F 79% 29.85 in 7.0 mi North 3.5 mph - N/A Snow Light Snow
6:55 PM 20.8 °F 14.4 °F 15.4 °F 80% 29.85 in 7.0 mi North 4.6 mph - N/A Snow Light Snow
7:14 PM 20.7 °F 15.8 °F 15.1 °F 79% 29.86 in 5.0 mi NNE 3.5 mph - N/A Snow Light Snow
7:35 PM 20.3 °F 15.4 °F 14.9 °F 80% 29.87 in 5.0 mi North 3.5 mph - N/A Snow Light Snow
7:54 PM 20.3 °F 15.4 °F 14.9 °F 80% 29.88 in 7.0 mi North 3.5 mph - N/A Snow Light Snow
8:14 PM 20.1 °F 15.2 °F 14.9 °F 80% 29.88 in 7.0 mi North 3.5 mph - N/A Snow Light Snow
8:35 PM 19.9 °F 14.9 °F 14.9 °F 81% 29.88 in 5.0 mi North 3.5 mph - N/A Snow Light Snow
8:54 PM 19.9 °F 13.4 °F 14.9 °F 81% 29.89 in 7.0 mi North 4.6 mph - N/A Snow Light Snow
9:14 PM 19.4 °F 14.3 °F 14.2 °F 80% 29.89 in 5.0 mi North 3.5 mph - N/A Snow Light Snow
9:35 PM 19.4 °F 14.3 °F 14.0 °F 80% 29.90 in 5.0 mi North 3.5 mph - N/A Snow Light Snow
9:54 PM 19.0 °F - 14.0 °F 81% 29.89 in 5.0 mi Calm Calm - N/A Snow Light Snow
10:14 PM 18.9 °F - 13.6 °F 80% 29.89 in 7.0 mi Calm Calm - N/A Snow Light Snow
10:34 PM 18.5 °F - 13.1 °F 79% 29.88 in 7.0 mi Calm Calm - N/A Snow Light Snow
10:54 PM 18.5 °F 13.3 °F 13.1 °F 79% 29.88 in 7.0 mi North 3.5 mph - N/A Snow Light Snow
11:15 PM 18.5 °F 11.7 °F 13.5 °F 81% 29.89 in 7.0 mi North 4.6 mph - N/A Snow Light Snow
11:34 PM 18.5 °F 13.3 °F 13.1 °F 79% 29.90 in 7.0 mi North 3.5 mph - N/A Snow Light Snow
11:54 PM 18.5 °F 13.3 °F 13.5 °F 81% 29.91 in 5.0 mi NNW 3.5 mph - N/A Snow Light Snow